TimePDT,TemperatureF,Dew PointF,Humidity,Sea Level PressureIn,VisibilityMPH,Wind Direction,Wind SpeedMPH,Gust SpeedMPH,PrecipitationIn,Events,Conditions,WindDirDegrees,DateUTC
12:56 AM,55.9,50.0,80,29.99,10.0,Calm,Calm,-,N/A,,Overcast,0,2013-07-17 07:56:00
1:56 AM,55.9,52.0,87,29.98,10.0,Calm,Calm,-,N/A,,Overcast,0,2013-07-17 08:56:00
2:56 AM,52.9,50.0,90,29.98,10.0,Calm,Calm,-,N/A,,Overcast,0,2013-07-17 09:56:00
3:56 AM,52.0,50.0,93,29.97,10.0,Calm,Calm,-,N/A,,Overcast,0,2013-07-17 10:56:00
4:56 AM,50.0,47.8,92,29.98,10.0,Calm,Calm,-,N/A,,Overcast,0,2013-07-17 11:56:00
5:56 AM,50.0,48.9,96,30.00,10.0,Calm,Calm,-,N/A,,Overcast,0,2013-07-17 12:56:00
6:56 AM,52.9,50.9,93,30.01,10.0,Calm,Calm,-,N/A,,Overcast,0,2013-07-17 13:56:00
7:56 AM,64.9,54.0,68,30.01,10.0,Calm,Calm,-,N/A,,Overcast,0,2013-07-17 14:56:00
8:56 AM,72.9,52.0,48,30.01,10.0,Calm,Calm,-,N/A,,Overcast,0,2013-07-17 15:56:00
9:56 AM,77.9,50.9,39,30.00,10.0,Calm,Calm,-,N/A,,Overcast,0,2013-07-17 16:56:00
10:56 AM,83.8,41.0,22,29.99,10.0,Calm,Calm,-,N/A,,Overcast,0,2013-07-17 17:56:00
11:56 AM,88.9,45.9,22,29.98,10.0,Calm,Calm,-,N/A,,Overcast,0,2013-07-17 18:56:00
12:56 PM,90.9,46.9,22,29.97,10.0,Calm,Calm,-,N/A,,Overcast,0,2013-07-17 19:56:00
1:56 PM,91.9,52.0,26,29.96,10.0,Calm,Calm,-,N/A,,Overcast,0,2013-07-17 20:56:00
2:21 PM,91.4,50.0,24,29.97,10.0,Calm,Calm,-,N/A,,Unknown,0,2013-07-17 21:21:00
2:56 PM,90.9,45.0,20,29.95,10.0,North,-9999.0,-,N/A,,Clear,0,2013-07-17 21:56:00
3:56 PM,90.9,50.0,25,29.93,10.0,North,-9999.0,-,N/A,,Clear,0,2013-07-17 22:56:00
4:56 PM,90.0,45.9,22,29.93,10.0,North,-9999.0,-,N/A,,Clear,0,2013-07-17 23:56:00
5:56 PM,88.9,50.9,27,29.91,10.0,North,-9999.0,-,N/A,,Clear,0,2013-07-18 00:56:00
6:56 PM,83.8,41.9,23,29.93,10.0,North,-9999.0,-,N/A,,Clear,0,2013-07-18 01:56:00
7:56 PM,81.0,39.9,23,29.94,10.0,North,-9999.0,-,N/A,,Clear,0,2013-07-18 02:56:00
8:56 PM,77.9,39.9,26,29.95,10.0,North,-9999.0,-,N/A,,Clear,0,2013-07-18 03:56:00
9:56 PM,70.0,38.8,32,29.97,10.0,North,-9999.0,-,N/A,,Clear,0,2013-07-18 04:56:00
10:56 PM,70.0,43.9,39,29.98,10.0,North,-9999.0,-,N/A,,Clear,0,2013-07-18 05:56:00
11:56 PM,63.0,43.0,48,29.98,10.0,North,-9999.0,-,N/A,,Clear,0,2013-07-18 06:56:00